Theta_e
326 326 325 324 322 320 318 318 317 316 316 317 317 316 316 317 317 317 317 317 317 317 317 318 318 320 316 305 305 332 335 341 331 319 317 315 312 314 308 315 319 321 321 323 325 331 331
324 324 325 324 323 320 318 316 316 316 316 316 315 315 315 316 316 316 317 316 316 316 316 318 318 320 308 297 314 330 330 330 320 315 312 316 313 317 313 315 317 320 320 321 320 323 330
323 323 323 322 321 318 317 316 316 316 315 315 315 314 315 315 315 315 315 315 315 316 316 317 319 318 307 301 326 329 329 322 317 314 311 313 316 316 319 317 321 319 313 315 327 321 327
322 321 321 319 319 317 316 316 315 315 314 314 314 314 315 315 315 315 314 313 314 317 316 317 322 318 304 318 329 327 324 319 318 316 314 313 316 316 316 318 313 312 309 306 326 326 329
321 320 318 317 317 316 316 315 314 314 314 314 315 315 315 314 314 313 312 313 320 320 319 322 318 315 308 325 321 322 321 315 317 316 315 314 312 311 312 312 308 308 308 304 318 329 328
319 318 317 316 316 316 315 314 314 315 314 314 314 315 315 314 314 312 312 312 318 322 322 322 319 309 312 311 316 321 323 319 314 312 310 308 307 307 309 310 302 305 305 304 310 325 327
318 317 317 316 316 316 315 316 316 315 314 314 316 315 314 313 312 311 310 312 306 309 314 305 304 305 309 314 312 318 320 317 315 312 304 305 303 301 309 310 309 308 307 306 308 317 312
318 317 316 316 315 316 315 315 316 315 315 315 315 315 313 312 311 310 309 304 306 306 301 307 310 310 312 313 304 309 320 310 310 304 307 302 300 306 310 310 308 308 306 305 307 308 307
318 317 317 316 315 314 314 315 316 315 315 315 315 313 313 311 310 308 305 306 309 308 301 301 306 306 307 311 303 304 314 310 309 306 305 300 303 308 309 308 307 307 306 304 305 307 320
318 317 316 316 314 314 315 315 315 315 315 315 314 314 311 310 305 305 306 310 309 308 296 295 300 305 306 307 301 307 311 310 308 306 307 305 309 307 308 307 309 305 308 307 305 305 301
318 317 316 315 314 314 315 315 315 315 315 315 314 312 310 308 306 307 309 309 307 305 286 299 300 306 303 302 304 303 307 306 305 306 307 304 307 307 307 308 310 307 309 308 306 304 302
318 317 317 315 314 314 315 315 315 315 314 314 312 310 309 307 307 310 309 308 306 295 285 296 299 298 299 300 300 303 303 306 305 305 305 301 305 308 310 310 311 309 304 302 302 302 297
318 317 316 315 315 314 315 315 315 315 313 312 310 308 308 308 307 309 310 307 295 289 299 295 296 297 298 296 298 300 299 298 297 298 299 298 298 301 302 303 306 307 303 295 294 294 295
318 316 316 314 314 313 315 315 315 314 313 311 308 307 309 311 313 311 309 300 290 293 294 299 298 299 296 297 297 298 297 295 299 297 295 294 291 298 301 299 301 305 304 297 291 292 295
318 316 315 315 314 314 315 315 314 314 312 311 307 312 311 310 311 310 305 292 290 293 296 296 297 295 295 297 297 297 296 295 297 298 296 294 293 299 300 301 300 298 298 300 296 295 296
318 316 315 315 314 314 315 315 314 313 312 310 313 310 309 308 311 308 300 291 294 297 298 297 293 295 293 294 295 295 294 297 296 299 298 295 293 296 298 300 301 300 299 297 299 292 292
317 315 315 315 314 315 315 315 315 313 311 309 309 307 310 308 309 303 294 294 296 299 299 296 294 293 293 293 294 292 292 297 298 299 299 297 296 295 298 295 293 298 297 295 299 296 294
316 315 315 314 314 315 315 315 314 312 309 308 307 301 310 309 300 297 294 295 296 297 299 297 297 295 293 293 293 293 292 295 299 299 295 297 295 291 292 296 298 297 294 295 297 294 295
316 314 315 314 314 315 316 315 313 311 308 311 305 303 310 307 295 294 297 296 297 296 296 295 294 295 295 292 291 294 295 298 300 301 296 297 292 289 290 295 297 295 295 295 293 296 295
315 314 314 314 314 315 315 315 313 310 309 307 304 298 303 301 297 296 294 294 294 298 296 297 295 296 294 293 295 292 293 296 298 302 303 299 293 291 290 291 295 292 293 294 294 294 293
313 313 314 314 314 315 316 315 313 311 309 310 303 297 297 294 296 296 295 295 293 293 297 297 295 294 292 291 292 291 293 295 298 299 298 298 292 293 293 293 293 292 292 293 292 294 293
314 313 313 313 314 315 316 315 314 311 309 309 304 300 299 296 296 297 295 294 294 294 295 293 293 295 296 292 293 291 293 293 292 297 294 296 291 292 289 291 291 289 292 292 292 293 293
312 312 313 313 313 315 316 316 315 312 310 310 307 303 304 295 296 296 296 295 294 296 298 298 296 296 294 295 298 298 298 297 296 295 293 293 292 290 286 290 289 286 291 291 293 297 296
313 312 313 313 313 314 316 316 316 313 310 313 309 305 303 296 298 297 298 298 296 296 296 298 300 297 298 301 300 299 298 297 297 295 294 293 292 291 287 288 281 291 297 297 294 297 298
312 312 312 313 313 314 315 316 316 314 312 313 310 308 304 298 299 298 298 297 298 299 298 298 300 301 302 299 295 292 292 293 293 294 294 294 294 288 286 285 287 290 292 293 294 294 297
312 311 312 312 312 314 315 316 316 315 312 314 311 310 306 302 300 302 299 298 297 297 297 298 302 302 300 297 294 288 287 289 288 290 294 294 295 293 288 284 282 291 295 297 297 290 296
311 311 312 312 312 313 314 315 316 316 313 315 313 311 309 304 304 304 301 300 299 297 297 298 299 299 298 295 291 289 287 289 286 287 288 290 292 289 289 287 290 296 296 298 288 291 296
311 311 311 312 312 313 313 314 315 315 315 314 313 313 311 307 306 306 306 302 301 301 298 298 298 297 296 292 291 288 287 288 287 288 289 289 288 288 289 286 283 298 294 291 294 296 296
311 311 311 312 312 312 313 314 314 314 315 311 312 311 312 310 306 309 310 310 309 307 302 299 298 296 297 292 291 291 289 289 287 287 292 288 292 290 292 291 296 298 296 298 297 296 297
Wind_Speed
15 13 12 12 11 13 15 15 15 16 16 17 18 17 18 17 18 17 16 16 15 13 11 9 6 1 2 2 7 4 16 17 12 13 15 10 15 5 6 5 7 8 3 4 6 5 1
16 15 11 10 12 14 15 15 16 17 16 17 18 18 18 18 18 19 18 17 16 15 11 8 5 5 2 3 2 10 14 14 10 11 10 13 10 4 6 5 6 6 9 10 6 8 6
14 15 14 14 14 15 16 17 18 18 19 18 18 18 19 18 18 19 19 19 18 16 11 6 6 4 2 1 3 11 11 6 7 5 9 5 5 3 4 5 1 2 4 2 5 8 5
15 16 15 16 16 16 17 18 19 19 19 19 19 19 19 20 19 19 19 21 20 16 9 6 7 4 4 2 6 11 7 6 6 5 3 3 4 4 2 2 2 4 3 3 4 9 5
16 16 16 16 16 17 17 18 19 20 19 19 19 20 20 19 19 19 19 19 14 5 10 10 5 6 4 5 5 10 3 8 7 2 1 5 3 3 3 3 5 1 6 4 5 2 6
17 17 17 17 17 17 18 18 18 18 19 19 20 18 18 19 16 18 16 15 7 9 7 5 3 5 3 5 7 9 4 11 5 10 7 4 4 6 4 7 10 9 6 3 6 9 4
18 18 19 20 19 19 19 18 19 20 20 20 19 18 19 18 17 12 10 2 4 4 4 5 2 4 2 3 7 9 10 6 7 6 6 7 8 13 13 6 2 6 6 8 3 3 4
18 19 20 20 21 19 21 21 19 20 20 20 19 20 20 18 17 6 6 4 3 4 5 8 9 8 6 2 7 9 15 7 9 11 9 8 12 10 9 6 5 7 7 5 2 3 4
17 18 19 19 21 22 22 20 20 20 19 19 19 20 17 17 14 4 2 3 3 2 2 1 3 5 3 8 7 11 21 8 13 10 10 10 5 10 10 9 9 5 8 5 3 1 3
17 17 18 19 22 22 22 20 20 21 21 20 19 16 16 17 2 2 3 2 7 5 1 2 2 4 5 4 5 5 14 8 5 13 11 7 6 13 11 10 9 10 7 5 3 2 4
17 18 18 20 22 22 21 21 21 21 20 20 18 15 13 5 2 2 4 9 3 3 2 3 4 1 2 3 12 4 2 2 11 9 5 5 12 15 12 11 9 3 7 7 3 3 3
17 18 19 22 23 24 22 21 21 21 20 18 18 14 7 4 2 4 7 5 4 3 3 2 2 5 6 2 3 5 3 5 3 8 2 3 2 5 10 7 12 11 8 7 4 3 6
17 18 20 22 22 22 23 22 23 23 20 18 17 12 4 2 4 5 7 1 2 3 5 7 4 3 8 6 7 5 5 7 2 11 11 3 3 2 3 8 6 7 9 6 7 6 5
17 17 19 21 21 23 23 23 23 24 23 20 17 2 5 3 4 6 0 0 4 2 4 4 4 8 6 3 6 6 6 5 11 4 4 5 7 5 7 2 5 14 12 5 8 9 8
17 17 19 20 20 21 23 23 23 24 23 21 9 2 1 6 1 1 2 6 4 4 6 7 1 5 4 5 5 5 7 5 6 10 1 5 5 3 8 7 3 6 8 2 6 1 8
17 18 18 19 20 22 22 24 23 26 23 17 1 1 4 8 2 1 5 4 2 7 7 3 2 3 4 4 4 5 5 5 6 8 3 2 6 6 5 2 11 3 5 7 2 8 10
16 17 18 19 20 23 23 24 24 24 22 9 2 1 5 8 1 6 5 4 4 10 7 6 3 5 6 4 7 5 5 4 8 7 5 3 2 4 2 9 7 1 4 4 2 3 5
16 16 17 20 21 23 24 25 25 24 20 2 2 2 8 6 6 3 4 4 4 13 10 8 6 9 5 6 6 5 4 6 13 5 4 4 5 6 5 2 4 6 3 1 7 7 2
15 16 17 19 21 23 23 24 23 22 12 2 3 3 4 4 5 4 3 4 8 11 10 8 9 8 6 4 6 5 4 5 12 7 4 3 4 6 2 3 2 4 5 3 2 1 4
14 16 18 19 20 22 24 24 23 19 8 2 2 3 5 7 3 3 3 5 4 7 9 8 6 3 3 7 8 5 4 6 8 8 11 2 5 4 1 5 3 3 1 4 4 3 7
14 16 17 18 19 21 22 23 23 19 6 1 5 4 2 4 7 7 3 3 6 5 5 10 7 10 4 4 4 5 3 3 8 11 5 4 5 5 7 5 2 1 2 3 3 3 3
13 15 16 18 19 19 21 22 24 23 5 6 2 2 3 3 2 5 5 4 7 4 5 7 8 10 11 6 4 4 3 2 3 6 4 4 5 5 4 3 3 2 3 4 5 2 3
12 14 15 16 17 17 19 20 22 24 7 4 2 1 1 2 3 2 3 2 3 2 7 7 4 6 9 7 3 4 6 6 4 3 4 4 5 2 5 3 1 4 0 3 1 2 3
10 12 13 15 16 16 16 17 18 20 10 3 2 1 2 3 3 2 2 3 4 4 5 4 6 4 3 8 12 11 11 10 9 7 4 5 4 1 5 4 5 6 4 3 3 6 6
9 12 12 13 14 14 15 15 16 17 13 4 2 1 2 3 2 3 4 3 4 4 4 5 3 4 5 4 5 6 3 2 6 7 3 2 4 4 4 5 2 2 2 2 1 3 5
9 10 11 11 11 12 13 14 14 14 13 3 3 0 1 4 2 3 3 2 3 2 4 4 3 3 3 1 2 3 3 1 3 4 4 6 5 1 4 3 6 5 6 3 5 4 2
8 9 9 10 10 10 12 13 13 14 14 2 3 2 0 2 3 5 2 2 4 2 1 0 2 3 2 2 2 2 3 1 4 6 5 3 3 3 4 3 2 6 4 4 6 6 2
7 8 8 9 9 9 10 10 12 13 13 4 2 4 2 1 1 5 6 5 4 2 2 4 3 3 2 2 2 3 3 4 3 2 4 5 6 4 2 4 5 8 6 6 5 3 2
7 7 8 8 8 9 9 9 9 10 11 4 1 2 2 2 3 2 3 1 2 4 4 2 3 2 2 4 1 3 3 3 3 3 4 4 3 3 6 2 3 6 1 5 4 4 5
Wind_Direction
344 337 335 351 345 347 346 342 341 340 339 336 334 334 332 331 327 325 322 321 319 317 317 313 291 170 214 207 261 85 141 142 134 155 161 157 167 154 168 172 168 235 250 238 239 232 230
348 347 340 351 344 352 348 344 342 339 339 338 335 332 331 330 327 323 322 319 316 308 306 299 268 162 199 223 0 150 143 140 147 147 142 159 173 178 157 176 207 206 246 266 289 222 193
353 2 359 357 359 350 346 343 341 341 337 336 334 332 329 327 326 323 322 317 309 298 288 272 229 206 158 239 11 146 144 147 148 147 153 161 166 199 154 161 224 249 271 174 38 188 172
4 0 359 357 351 348 344 342 340 338 336 333 330 330 327 326 326 323 322 318 307 283 249 216 195 221 237 358 151 152 142 110 137 77 87 141 108 193 264 317 166 206 238 186 86 161 157
1 356 354 352 348 346 342 341 340 336 333 330 327 327 326 327 327 322 325 319 323 161 159 159 171 256 127 122 175 173 193 152 125 100 31 144 169 186 190 207 158 171 184 145 139 141 152
356 354 349 348 345 341 340 338 336 334 331 328 326 320 320 325 327 326 320 305 290 99 121 164 245 259 184 180 155 161 143 141 132 132 129 136 161 187 168 195 181 164 162 125 147 191 223
353 348 347 347 343 339 337 334 332 334 331 330 320 320 323 327 326 326 318 199 184 148 221 208 287 297 118 111 134 165 164 147 130 163 157 162 189 196 184 188 115 137 143 129 112 155 235
348 346 345 343 341 336 338 337 331 331 328 322 321 324 327 329 332 343 141 257 75 14 282 227 250 275 273 205 132 126 163 167 167 166 141 159 211 184 184 195 190 154 150 151 126 119 243
345 343 342 340 340 339 338 333 330 326 323 323 321 328 330 330 332 149 263 250 20 263 248 297 194 239 225 182 136 156 170 166 170 164 180 189 194 172 187 184 188 183 180 175 140 135 122
342 343 341 340 338 338 335 330 328 325 324 324 327 327 329 329 149 10 238 356 321 175 292 113 203 229 160 193 99 136 188 157 161 176 178 204 185 175 182 182 193 199 190 167 156 203 176
341 339 340 338 338 338 333 330 326 322 326 327 327 326 329 353 344 212 16 335 139 194 180 17 132 59 162 187 134 97 58 154 170 155 188 150 174 181 187 193 190 189 165 185 173 166 236
338 337 339 343 341 339 333 329 325 325 330 330 326 327 335 115 186 270 323 328 220 253 81 55 63 156 150 63 66 110 76 50 75 146 242 107 79 193 206 179 187 143 108 80 89 171 202
338 340 343 346 342 336 332 328 328 329 334 332 325 326 184 182 9 347 328 26 209 36 335 3 17 54 93 30 61 59 43 45 72 167 173 123 61 48 17 161 155 178 172 149 175 193 184
336 342 347 347 341 337 333 331 329 333 336 334 325 93 181 241 307 329 268 89 72 5 359 346 356 79 81 15 53 47 84 58 34 355 122 162 157 16 358 15 188 189 202 209 185 186 158
338 344 347 346 342 335 330 330 330 335 335 333 313 57 347 347 135 197 103 58 22 338 325 322 312 96 88 59 107 91 58 57 21 1 190 139 114 338 43 26 315 144 201 42 114 85 180
341 342 348 347 342 333 332 330 333 336 334 331 75 38 32 345 119 60 72 91 37 1 326 295 88 360 107 27 100 75 30 23 1 10 306 112 129 21 11 299 53 352 108 172 208 165 177
338 342 348 346 341 335 334 333 336 336 332 321 51 60 15 348 215 54 66 55 10 3 7 20 40 85 69 79 59 72 21 66 5 336 33 13 315 66 25 28 2 32 123 64 99 322 182
337 343 348 351 345 337 337 337 340 341 336 359 58 49 353 333 51 34 52 9 4 358 11 41 59 57 57 43 63 89 93 16 346 338 42 22 71 64 92 14 337 46 77 331 221 177 61
338 344 352 351 346 339 339 339 343 344 352 344 64 359 357 329 82 69 68 62 47 26 26 19 37 38 53 60 105 81 82 25 13 45 32 6 47 124 150 216 137 43 38 71 88 8 172
342 348 353 352 350 342 342 342 344 344 332 49 75 50 18 48 30 71 84 34 76 48 48 62 34 61 88 53 43 108 92 27 13 31 41 76 79 352 82 65 76 141 42 34 357 215 145
344 350 352 353 353 346 344 343 344 348 333 13 21 69 8 24 43 59 64 36 55 36 46 30 40 36 44 90 68 76 56 35 40 7 40 32 95 93 71 78 87 163 242 338 351 64 312
343 348 354 355 355 350 346 345 348 353 326 77 64 136 74 66 1 52 28 32 63 72 30 45 91 55 63 83 44 124 126 47 20 1 51 8 109 129 82 59 15 266 255 295 293 296 243
341 349 353 356 356 353 347 347 353 356 356 72 63 73 91 17 47 70 43 80 42 102 66 67 101 98 70 68 79 66 72 81 72 10 57 46 128 132 143 13 190 222 134 222 273 45 338
337 347 353 356 357 353 348 349 358 3 20 87 76 324 88 75 72 52 107 101 85 62 111 66 62 90 63 122 115 95 92 90 81 59 16 123 103 63 132 155 212 80 40 11 235 61 42
336 347 353 355 357 352 348 350 358 6 7 70 95 360 100 105 90 111 108 102 111 95 98 95 77 66 144 150 127 132 118 151 69 46 53 13 128 117 182 194 76 187 58 51 14 115 31
335 345 350 349 356 353 349 351 354 6 12 73 63 353 43 132 179 124 119 128 145 148 145 118 89 96 144 98 145 174 162 115 149 128 61 78 74 198 179 209 203 105 147 162 172 226 116
325 341 345 344 350 355 352 353 355 7 9 21 68 14 322 96 171 168 157 148 129 126 91 32 118 155 338 119 121 157 152 183 180 176 161 125 90 188 182 239 213 143 141 159 225 75 20
321 336 338 333 345 352 355 355 358 3 7 342 78 13 346 331 198 202 168 142 143 195 209 122 191 138 121 116 172 139 151 188 175 155 179 179 159 177 180 223 234 154 155 232 62 91 4
316 332 338 330 342 352 350 356 1 0 6 344 109 52 338 253 1 311 285 306 191 171 135 153 35 146 115 101 129 141 149 161 167 186 189 206 221 184 211 216 114 167 149 129 124 61 25